Simultaneous Nadir Overpasses (SNOs) Predictions

Prediction of SNOs between METOP-B and NOAA-19 Satellite Orbit:

Table of predicted SNOs for the next 14.0 days since TLE Epoch: 5/10/2019
Index Date (METOP-B) Time (METOP-B) Lat,Lon (METOP-B) SZA (METOP-B ) Date (NOAA-19) Time (NOAA-19) Lat,Lon (NOAA-19) SZA (NOAA-19 ) Distance(km) Time Diff (sec)
1 05/11/2019 09:08:03 79.48, 60.46 62.15 05/11/2019 09:06:59 79.47, 56.12 61.89 88.24 64
2 05/11/2019 09:58:52 -79.22,-134.22 118.23 05/11/2019 09:57:47 -79.22,-134.30 118.25 1.75 65
3 05/11/2019 10:49:32 79.23, 33.16 61.78 05/11/2019 10:48:51 79.20, 33.07 61.74 3.39 41
4 05/11/2019 11:40:14 -79.21,-159.66 118.26 05/11/2019 11:39:47 -79.19,-159.56 118.28 2.66 27
5 05/11/2019 12:30:55 79.18, 7.47 61.69 05/11/2019 12:30:52 79.21, 7.53 61.72 3.48 3
6 05/11/2019 13:21:36 -79.19, 174.90 118.30 05/11/2019 13:21:48 -79.19, 174.90 118.30 0.14 12
7 05/11/2019 14:12:16 79.20, -17.72 61.70 05/11/2019 14:12:52 79.18, -17.74 61.69 2.19 36
8 05/11/2019 15:02:58 -79.18, 149.46 118.34 05/11/2019 15:03:49 -79.20, 149.37 118.31 2.80 51
9 05/11/2019 15:53:38 79.18, -43.16 61.67 05/11/2019 15:54:53 79.18, -43.27 61.68 2.33 75
10 05/22/2019 08:40:14 79.25, 65.63 59.31 05/22/2019 08:39:00 79.25, 65.53 59.30 2.28 74
11 05/22/2019 09:30:56 -79.24,-127.09 120.71 05/22/2019 09:29:59 -79.25,-127.17 120.72 1.84 57
12 05/22/2019 10:21:36 79.23, 40.19 59.28 05/22/2019 10:21:00 79.22, 40.26 59.27 1.65 36
13 05/22/2019 11:12:18 -79.22,-152.53 120.74 05/22/2019 11:11:59 -79.22,-152.44 120.74 2.13 19
14 05/22/2019 12:02:58 79.22, 14.74 59.25 05/22/2019 12:03:01 79.23, 14.72 59.26 1.44 3
15 05/22/2019 12:53:40 -79.21,-177.98 120.77 05/22/2019 12:54:00 -79.22,-177.97 120.76 1.28 20
16 05/22/2019 13:44:20 79.20, -10.70 59.21 05/22/2019 13:45:01 79.20, -10.55 59.23 3.15 41
17 05/22/2019 14:35:02 -79.20, 156.58 120.81 05/22/2019 14:36:01 -79.23, 156.49 120.77 3.73 59




NCC Satellite Simultaneous Nadir Overpasses (SNOs) Prediction Service
